Weather History for Gulfport, MS

Change the Weather History Date:

Wednesday, February 13, 2013

  Actual Average Record
Temperature  
Mean Temperature 56 °F -  
Max Temperature 66 °F 63 °F 75 °F (1952)
Min Temperature 44 °F 44 °F 18 °F (1958)
Degree Days  
Heating Degree Days 10    
Growing Degree Days 6 (Base 50)    
Moisture  
Dew Point 49 °F    
Average Humidity 85    
Maximum Humidity 94    
Minimum Humidity 75    
Precipitation  
Precipitation 0.20 in - - ()
Sea Level Pressure  
Sea Level Pressure 29.94 in    
Wind  
Wind Speed 8 mph (NW)    
Max Wind Speed 18 mph    
Max Gust Speed 28 mph    
Visibility 8 miles    
Events Rain    
Averages and records for this station are not official NWS values.
T = Trace of Precipitation, MM = Missing Value Source: NWS Daily Summary

Daily Weather History Graph

Daily Weather History Graph

Search for Another Location

Airport:

Trip Planner

Search our weather history database for the weather conditions in past years. The results will help you decide how hot, cold, wet, or windy it might be!

Date:

Astronomy

Feb. 13, 2013 Rise Set
Actual Time 6:38 AM CST 5:43 PM CST
Civil Twilight 6:13 AM CST 6:07 PM CST
Nautical Twilight 5:45 AM CST 6:36 PM CST
Astronomical Twilight 5:17 AM CST 7:04 PM CST
Moon 8:26 AM CST (2/13) 9:23 PM CST (2/13)
Length of Visible Light 11h 54m
Length of Day
11h 05m
Waxing Crescent, 14% of the Moon is Illuminated
Feb 13
Waxing Crescent
Feb 17
First Quarter
Feb 25
Full
Mar 4
Last Quarter
Mar 11
New

Hourly Weather History & Observations

Time (CST) Temp. Windchill Dew Point Humidity Pressure Visibility Wind Dir Wind Speed Gust Speed Precip Events Conditions
12:27 AM 66.2 °F - 64.4 °F 94% 29.80 in - WNW 9.2 mph - N/A   Mostly Cloudy
12:53 AM 66.0 °F - 62.1 °F 87% 29.81 in - WNW 9.2 mph - N/A   Mostly Cloudy
1:22 AM 64.4 °F - 60.8 °F 88% 29.82 in - WNW 9.2 mph - N/A   Scattered Clouds
1:53 AM 63.0 °F - 59.0 °F 87% 29.82 in - WNW 8.1 mph 19.6 mph N/A   Mostly Cloudy
2:19 AM 62.6 °F - 57.2 °F 82% 29.83 in - WNW 11.5 mph 21.9 mph N/A   Scattered Clouds
2:53 AM 61.0 °F - 57.0 °F 87% 29.85 in - WNW 9.2 mph - N/A   Mostly Cloudy
3:37 AM 57.2 °F - 55.4 °F 94% 29.85 in - WNW 3.5 mph - N/A   Mostly Cloudy
3:53 AM 57.9 °F - 54.0 °F 87% 29.86 in - WNW 4.6 mph - N/A   Scattered Clouds
4:53 AM 55.0 °F - 51.1 °F 86% 29.89 in - WNW 5.8 mph - N/A   Clear
5:53 AM 54.0 °F - 50.0 °F 86% 29.91 in 10.0 mi WNW 9.2 mph - N/A   Overcast
6:53 AM 53.1 °F - 48.0 °F 83% 29.93 in 10.0 mi NW 9.2 mph - N/A   Clear
7:53 AM 53.1 °F - 48.0 °F 83% 29.94 in - NW 8.1 mph - N/A   Scattered Clouds
8:53 AM 53.1 °F - 46.9 °F 80% 29.95 in 10.0 mi NNW 18.4 mph 27.6 mph 0.01 in   Scattered Clouds
9:53 AM 54.0 °F - 46.0 °F 75% 29.94 in 10.0 mi NW 13.8 mph 21.9 mph N/A   Mostly Cloudy
10:53 AM 54.0 °F - 46.9 °F 77% 29.96 in 8.0 mi NW 11.5 mph - 0.00 in Rain Light Rain
11:35 AM 53.6 °F - 46.4 °F 77% 30.00 in 8.0 mi West 5.8 mph - 0.02 in Rain Light Rain
11:53 AM 52.0 °F - 48.0 °F 86% 29.99 in 6.0 mi WNW 8.1 mph - 0.03 in Rain Light Rain
12:53 PM 48.9 °F - 46.0 °F 90% 30.00 in 6.0 mi NW 11.5 mph - 0.05 in Rain Light Rain
1:53 PM 48.9 °F - 46.0 °F 90% 29.98 in 6.0 mi NW 6.9 mph - 0.10 in Rain Light Rain
2:53 PM 48.9 °F - 46.0 °F 90% 29.97 in 6.0 mi NNW 6.9 mph - 0.01 in   Overcast
2:56 PM 48.2 °F - 46.4 °F 93% 29.97 in 8.0 mi NNW 9.2 mph - N/A   Mostly Cloudy
3:53 PM 50.0 °F - 46.0 °F 86% 29.98 in 8.0 mi NW 4.6 mph - N/A   Overcast
4:53 PM 50.0 °F - 46.0 °F 86% 30.00 in 8.0 mi WNW 3.5 mph - N/A   Overcast
5:53 PM 50.0 °F - 45.0 °F 83% 29.99 in 8.0 mi NNW 6.9 mph - N/A   Scattered Clouds
6:53 PM 48.9 °F - 45.0 °F 86% 30.01 in 10.0 mi NNW 4.6 mph - N/A   Partly Cloudy
7:53 PM 48.9 °F - 44.1 °F 83% 30.03 in 10.0 mi Calm Calm - N/A   Clear
8:53 PM 48.0 °F - 44.1 °F 86% 30.05 in 10.0 mi Calm Calm - N/A   Clear
9:53 PM 46.9 °F - 41.0 °F 80% 30.07 in - North 5.8 mph - N/A   Clear
10:53 PM 45.0 °F 42.6 °F 39.9 °F 82% 30.07 in - NNW 4.6 mph - N/A   Clear
11:53 PM 44.1 °F - 39.0 °F 82% 30.07 in - Calm Calm - N/A   Clear